When you browse on this site, cookies collect data to enhance your experience and personalize the content and advertising you see.
Visit our Privacy Policy to learn more. By continuing to use the site, you agree to this use of cookies and data.

Météo par heure à Cabimas

Ce jour, 15 Juillet, Mercredi

Heure Température Précipitation Vent Pression Humidité
00:00 +28°C° 0 mm 3 m/s 759 mmHg 83%
01:00 +28°C° 0 mm 3 m/s 758 mmHg 83%
02:00 +28°C° 0 mm 2 m/s 758 mmHg 83%
03:00 +27°C° 0 mm 2 m/s 758 mmHg 83%
04:00 +27°C° 0 mm 2 m/s 758 mmHg 83%
05:00 +27°C° 0.2 mm 2 m/s 758 mmHg 81%
06:00 +28°C° 0.2 mm 2 m/s 758 mmHg 79%
07:00 +28°C° 0.2 mm 1 m/s 759 mmHg 77%
08:00 +30°C° 0 mm 1 m/s 759 mmHg 71%
09:00 +32°C° 0 mm 1 m/s 758 mmHg 65%
10:00 +34°C° 0 mm 1 m/s 758 mmHg 59%
11:00 +35°C° 0 mm 1 m/s 758 mmHg 58%
12:00 +35°C° 0 mm 1 m/s 757 mmHg 56%
13:00 +36°C° 0 mm 1 m/s 756 mmHg 55%
14:00 +36°C° 0.1 mm 2 m/s 756 mmHg 58%
15:00 +35°C° 0.1 mm 2 m/s 755 mmHg 62%
16:00 +34°C° 0.1 mm 3 m/s 755 mmHg 65%
17:00 +33°C° 0.2 mm 4 m/s 755 mmHg 68%
18:00 +32°C° 0.2 mm 4 m/s 756 mmHg 71%
19:00 +30°C° 0.2 mm 5 m/s 756 mmHg 73%
20:00 +29°C° 0 mm 5 m/s 757 mmHg 76%
21:00 +28°C° 0 mm 6 m/s 757 mmHg 79%
22:00 +28°C° 0 mm 6 m/s 758 mmHg 82%
23:00 +27°C° 0 mm 5 m/s 758 mmHg 83%

Demain, 16 Juillet, Jeudi

Heure Température Précipitation Vent Pression Humidité
00:00 +27°C° 0 mm 4 m/s 757 mmHg 85%
01:00 +27°C° 0 mm 3 m/s 757 mmHg 86%
02:00 +27°C° 0 mm 3 m/s 757 mmHg 87%
03:00 +26°C° 0 mm 3 m/s 757 mmHg 87%
04:00 +26°C° 0 mm 2 m/s 757 mmHg 88%
05:00 +27°C° 0.1 mm 2 m/s 757 mmHg 86%
06:00 +27°C° 0.1 mm 2 m/s 757 mmHg 85%
07:00 +28°C° 0.1 mm 2 m/s 758 mmHg 83%
08:00 +29°C° 0.1 mm 2 m/s 758 mmHg 77%
09:00 +31°C° 0.1 mm 2 m/s 758 mmHg 71%
10:00 +34°C° 0.1 mm 3 m/s 758 mmHg 64%
11:00 +35°C° 0 mm 3 m/s 757 mmHg 60%
12:00 +35°C° 0 mm 3 m/s 756 mmHg 56%
13:00 +36°C° 0 mm 3 m/s 756 mmHg 52%
14:00 +35°C° 0.1 mm 3 m/s 755 mmHg 56%
15:00 +35°C° 0.1 mm 2 m/s 755 mmHg 60%
16:00 +34°C° 0.1 mm 2 m/s 754 mmHg 63%
17:00 +33°C° 0.2 mm 3 m/s 755 mmHg 68%
18:00 +30°C° 0.2 mm 4 m/s 755 mmHg 73%
19:00 +29°C° 0.2 mm 5 m/s 756 mmHg 77%
20:00 +29°C° 0 mm 5 m/s 756 mmHg 80%
21:00 +28°C° 0 mm 4 m/s 757 mmHg 83%
22:00 +28°C° 0 mm 4 m/s 757 mmHg 86%
23:00 +28°C° 0 mm 3 m/s 757 mmHg 86%

Après-demain, 17 Juillet, Vendredi

Heure Température Précipitation Vent Pression Humidité
00:00 +28°C° 0 mm 3 m/s 757 mmHg 86%
01:00 +28°C° 0 mm 2 m/s 756 mmHg 86%
02:00 +27°C° 0.7 mm 2 m/s 756 mmHg 88%
03:00 +27°C° 0.7 mm 2 m/s 756 mmHg 90%
04:00 +26°C° 0.7 mm 2 m/s 756 mmHg 92%
05:00 +27°C° 0.9 mm 2 m/s 756 mmHg 91%
06:00 +27°C° 0.9 mm 2 m/s 757 mmHg 91%
07:00 +27°C° 0.9 mm 3 m/s 757 mmHg 90%
08:00 +29°C° 0.3 mm 3 m/s 757 mmHg 82%
09:00 +31°C° 0.3 mm 3 m/s 757 mmHg 74%
10:00 +33°C° 0.3 mm 3 m/s 757 mmHg 66%
11:00 +34°C° 0.1 mm 2 m/s 756 mmHg 63%
12:00 +35°C° 0.1 mm 2 m/s 756 mmHg 60%
13:00 +36°C° 0.1 mm 2 m/s 755 mmHg 56%
14:00 +36°C° 0 mm 2 m/s 755 mmHg 58%
15:00 +34°C° 0 mm 1 m/s 754 mmHg 59%
16:00 +34°C° 0 mm 1 m/s 754 mmHg 60%
17:00 +32°C° 0.5 mm 2 m/s 755 mmHg 68%
18:00 +30°C° 0.5 mm 3 m/s 755 mmHg 76%
19:00 +28°C° 0.5 mm 4 m/s 755 mmHg 84%
20:00 +28°C° 0.1 mm 4 m/s 756 mmHg 86%
21:00 +28°C° 0.1 mm 4 m/s 757 mmHg 87%
22:00 +28°C° 0.1 mm 4 m/s 757 mmHg 88%
23:00 +28°C° 0 mm 3 m/s 757 mmHg 89%

18 Juillet, Samedi

Heure Température Précipitation Vent Pression Humidité
00:00 +28°C° 0 mm 3 m/s 756 mmHg 89%
01:00 +28°C° 0 mm 2 m/s 756 mmHg 90%
02:00 +27°C° 0.1 mm 2 m/s 756 mmHg 90%
03:00 +27°C° 0.1 mm 2 m/s 756 mmHg 91%
04:00 +27°C° 0.1 mm 2 m/s 756 mmHg 91%
05:00 +27°C° 0.7 mm 2 m/s 756 mmHg 90%
06:00 +28°C° 0.7 mm 2 m/s 757 mmHg 89%
07:00 +28°C° 0.7 mm 2 m/s 757 mmHg 88%
08:00 +30°C° 0.1 mm 2 m/s 757 mmHg 81%
09:00 +33°C° 0.1 mm 3 m/s 757 mmHg 73%
10:00 +34°C° 0.1 mm 3 m/s 757 mmHg 66%
11:00 +35°C° 0.3 mm 3 m/s 756 mmHg 65%
12:00 +35°C° 0.3 mm 3 m/s 755 mmHg 64%
13:00 +35°C° 0.3 mm 3 m/s 755 mmHg 63%
14:00 +35°C° 0.1 mm 2 m/s 754 mmHg 62%
15:00 +34°C° 0.1 mm 1 m/s 754 mmHg 61%
16:00 +34°C° 0.1 mm 1 m/s 753 mmHg 60%
17:00 +34°C° 0.4 mm 2 m/s 754 mmHg 66%
18:00 +31°C° 0.4 mm 3 m/s 754 mmHg 73%
19:00 +30°C° 0.4 mm 5 m/s 755 mmHg 79%
20:00 +29°C° 0 mm 5 m/s 756 mmHg 82%
21:00 +28°C° 0 mm 5 m/s 756 mmHg 85%
22:00 +28°C° 0 mm 5 m/s 757 mmHg 88%
23:00 +28°C° 0 mm 5 m/s 756 mmHg 88%

19 Juillet, Dimanche

Heure Température Précipitation Vent Pression Humidité
00:00 +28°C° 0 mm 4 m/s 756 mmHg 89%
01:00 +27°C° 0 mm 4 m/s 756 mmHg 89%
02:00 +27°C° 0.1 mm 3 m/s 756 mmHg 89%
03:00 +27°C° 0.1 mm 2 m/s 756 mmHg 90%
04:00 +27°C° 0.1 mm 1 m/s 756 mmHg 90%
05:00 +27°C° 0.1 mm 2 m/s 756 mmHg 88%
06:00 +28°C° 0.1 mm 2 m/s 756 mmHg 86%
07:00 +28°C° 0.1 mm 2 m/s 756 mmHg 84%
08:00 +30°C° 0 mm 2 m/s 756 mmHg 78%
09:00 +31°C° 0 mm 3 m/s 757 mmHg 72%
10:00 +34°C° 0 mm 3 m/s 757 mmHg 66%
11:00 +35°C° 0 mm 3 m/s 756 mmHg 63%
12:00 +35°C° 0 mm 3 m/s 755 mmHg 60%
13:00 +36°C° 0 mm 2 m/s 754 mmHg 57%
14:00 +35°C° 0.2 mm 2 m/s 754 mmHg 60%
15:00 +35°C° 0.2 mm 2 m/s 754 mmHg 64%
16:00 +34°C° 0.2 mm 2 m/s 754 mmHg 67%
17:00 +33°C° 0.1 mm 3 m/s 754 mmHg 71%
18:00 +32°C° 0.1 mm 4 m/s 754 mmHg 76%
19:00 +29°C° 0.1 mm 5 m/s 755 mmHg 80%
20:00 +29°C° 0.1 mm 5 m/s 756 mmHg 82%
21:00 +29°C° 0.1 mm 5 m/s 756 mmHg 84%
22:00 +28°C° 0.1 mm 6 m/s 757 mmHg 86%
23:00 +28°C° 0.1 mm 5 m/s 756 mmHg 87%

20 Juillet, Lundi

Heure Température Précipitation Vent Pression Humidité
00:00 +27°C° 0.1 mm 4 m/s 756 mmHg 89%
01:00 +27°C° 0.1 mm 3 m/s 755 mmHg 91%
02:00 +27°C° 0.2 mm 2 m/s 755 mmHg 91%
03:00 +27°C° 0.2 mm 2 m/s 755 mmHg 92%
04:00 +27°C° 0.2 mm 1 m/s 755 mmHg 93%
05:00 +27°C° 0 mm 2 m/s 756 mmHg 91%
06:00 +27°C° 0 mm 2 m/s 756 mmHg 90%
07:00 +27°C° 0 mm 2 m/s 756 mmHg 88%
08:00 +29°C° 0.3 mm 3 m/s 756 mmHg 80%
09:00 +31°C° 0.3 mm 3 m/s 756 mmHg 72%
10:00 +34°C° 0.3 mm 3 m/s 757 mmHg 64%
11:00 +34°C° 0.1 mm 3 m/s 756 mmHg 63%
12:00 +35°C° 0.1 mm 2 m/s 755 mmHg 61%
13:00 +35°C° 0.1 mm 2 m/s 755 mmHg 60%
14:00 +35°C° 0.1 mm 2 m/s 755 mmHg 61%
15:00 +34°C° 0.1 mm 1 m/s 754 mmHg 62%
16:00 +34°C° 0.1 mm 1 m/s 754 mmHg 63%
17:00 +32°C° 0.8 mm 2 m/s 754 mmHg 71%
18:00 +30°C° 0.8 mm 3 m/s 755 mmHg 79%
19:00 +28°C° 0.8 mm 4 m/s 755 mmHg 87%
20:00 +28°C° 0.4 mm 4 m/s 755 mmHg 88%
21:00 +28°C° 0.4 mm 4 m/s 756 mmHg 89%
22:00 +27°C° 0.4 mm 3 m/s 757 mmHg 90%
23:00 +27°C° 0.1 mm 3 m/s 756 mmHg 90%
Voir plus